Regional Weather Roundup
Issued by NWS Midland/Odessa, TX

Skip options and go directly to product.
Home | Oldest Version | Previous Version | Current Version | All | Graphics & Text | Save Text | Print | Product List | Glossary On

Skip product version selection by date and time.   
256
ASUS44 KMAF 222110
RWRMAF
MIDLAND AREA WEATHER ROUNDUP
NATIONAL WEATHER SERVICE MIDLAND TX
300 PM CST SAT NOV 22 2014

...IN SOUTHWEST TEXAS AND SOUTHEAST NEW MEXICO...

CITY           SKY/WX    TMP DP  RH WIND       PRES   REMARKS
ALPINE         PTSUNNY   54  43  66 W6        29.96F
ANDREWS        FAIR      66  51  57 CALM      29.81F
ARTESIA        NOT AVBL
BIG SPRING     CLOUDY    62  54  75 CALM      29.82F
CARLSBAD       SUNNY     73  30  20 W14G23    29.82F
DRYDEN           N/A     76  48  37 SW24      29.77F
FORT STOCKTON  SUNNY     69  46  43 NW13      29.84F
GUAD PASS      MOSUNNY   64  30  27 W32G40    29.93F
HOBBS          SUNNY     68  32  26 W12       29.83F
MARFA          MOSUNNY   64  32  29 W21G26    29.94S
MIDLAND AIRPK  PTSUNNY   69  55  60 SW6       29.81F THUNDER
MIDLAND INTL   PTSUNNY   69  53  56 SW10      29.80F
ODESSA         MOSUNNY   69  51  52 SW10      29.81F
PECOS          SUNNY     71  40  32 NW13G21   29.83F
PRESIDIO       FAIR      72  37  27 W14G21    29.89F
SEMINOLE       PTSUNNY   69  45  40 W6        29.82F
SNYDER         CLOUDY    55  53  93 S5        29.81F
WINK           SUNNY     73  43  33 W16       29.79F
$$
...OTHER STATIONS IN TEXAS...

CITY           SKY/WX    TMP DP  RH WIND       PRES   REMARKS
ABILENE        TSTM      56  53  90 NW10      29.83R
AMARILLO       SUNNY     70  23  17 SW18G25   29.75F
AUSTIN         TSTM      65  65 100 E9        29.78F FOG
BROWNSVILLE    PTSUNNY   78  69  73 S25G35    29.80F
CORPUS CHRISTI PTSUNNY   76  70  82 S23G33    29.78F
DALLAS FTW     LGT RAIN  59  58  96 SE14      29.84F
DEL RIO        CLOUDY    74  63  68 SE7       29.76S
EL PASO        MOSUNNY   65  33  30 W13G23    29.95F
HOUSTON INT    LGT RAIN  66  65  96 E10       29.88F FOG
LUBBOCK        CLOUDY    64  50  60 SW7       29.79F
SAN ANGELO     MOSUNNY   76  56  49 SW16G26   29.75F
SAN ANTONIO    PTSUNNY   76  67  73 S15G21    29.76F
WACO           TSTM      63  61  93 E13       29.84F FOG
WICHITA FALLS  NOT AVBL
$$
...OTHER LOCATIONS IN NEW MEXICO...

CITY           SKY/WX    TMP DP  RH WIND       PRES   REMARKS
ALAMAGORDO     SUNNY     64  21  19 NW12      29.95F
ALBUQUERQUE    MOSUNNY   56  19  23 SW3       29.96F
CANNON AFB     SUNNY     66  21  18 W18G29    29.84F
CLOVIS         SUNNY     66  21  18 W21G26    29.80F
HOLLOMAN AFB   SUNNY     64  23  21 VRB2      29.93F
ROSWELL        SUNNY     71  27  19 S8        29.83F
RUIDOSO        SUNNY     54  18  24 NW18G26   29.98F
SANTA FE       SUNNY     54  18  24 W9G18     29.94F
TRUTH OR CONSE SUNNY     62  20  19 VRB3      29.96F
TUCUMCARI      SUNNY     70  11  10 W26G37    29.73F
$$

USA.gov is the U.S. government's official web portal to all federal, state and local government web resources and services.